FENGYUN 1C DEB, 31810

Orbit data source: Space-Track

FENGYUN 1C DEB, 31810 is space debris in SSO originally from a launch on Mon, 10 May 1999 UTC launched from the Taiyaun Space Center, China (TSC). Fengyun 1C debris stems from the Chinese weather satellite Fengyun-1C, which was intentionally destroyed by a Chinese anti-satellite missile in 2007. This event dramatically increased the amount of space debris, with thousands of trackable fragments posing hazards to satellites and human spaceflight. The Fengyun 1C debris cloud has become a focal point in discussions about space sustainability and the need for international regulations to prevent the creation of new debris.

Loading next visibility...
Identifier
31810, 1999-025CGY
Orbit
SSO
Country
Flag of CNCN / PRC
Related business
Manufacturer
Unknown
Mission
Spacecraft
Bus & Motor
Unknown
Mass
Unknown
Launch date (UTC)
1999-05-10 (27 years ago)
Launch vehicle
Unknown
Launch site
Taiyaun Space Center, China (TSC)
Object type
Payload
Rocket body
Debris
Shape & HBR
Unknown shape, 0.1 m
Radar Cross Section
Small (<0.1 m²)

Expand to show TLE details & history
Last TLE update: 2 days ago

TLE from 2 days ago
0 FENGYUN 1C DEB
1 31810U 99025CGY 26205.30058231  .00001833  00000-0  39227-3 0  9996
2 31810  98.2574 220.3781 0210623 178.4120 181.7789 14.47053046676464
Epoch: 2026-07-24T07:12Z
TLE epoch observation values (Epoch: 2026-07-24T07:12:50.311Z)
Latitude
-0°
Longitude
170.13928°
Altitude
888.044 km
Speed
7.33 km/s
True Right ascension
14h 41m 30s
True Declination
0° 00' 00"
Sunlit
Object was in daylight at epoch
Visualization orbit readout
Latitude
Unknown
Longitude
Unknown
Altitude
Unknown
Speed
Unknown
Apparent Right ascension
Unknown
Apparent Declination
Unknown
Sunlit
N/A
Visualization observer readout
Local Sidereal Time
16:11:34
Azimuth
Unknown
Elevation
Unknown
Doppler factor
Unknown
Orbital elements
Apogee altitude
882.153 km
Perigee altitude
582.625 km
Semi-major axis
7,110.526 km
Eccentricity
0.02106
Inclination
98.2574°
RAAN
220.3781°
Arg. of periapsis
178.412°
True anomaly
181.7059°
Mean anomaly
181.7789°
Eccentric anomaly
181.74221°
Mean motion
3.61985 °/min
Orbital period
99.45 mins
BSTAR
0.00039227
Loading maneuver chart data...
Computing Atmospheric mass density...

Documentation

Showing up to 5 results
|